Torna al catalogo

DELTA 1 DEB

AttivoLEO
NORAD 10713·DEBRIS·🇺🇸 United States

Lanciato Jul 29, 1976 da Vandenberg Space Force Base

Loading…

Prossimi Passaggi (prossime 24 ore)

TLE

AggiornatoSource: Space-Track

Epoca: Sep 14, 2026, 00:57 UTC

1 10713U 76077AJ  26257.03970985  .00001822  00000-0  53284-2 0  9999
2 10713 101.5584  97.0704 0126487  58.3849  93.5305 13.08041087339192

Traccia DELTA 1 DEB in tempo reale con AllMySat

Download on the App Store